www.pogodaiklimat.ru

Погода и климат >> Архив погоды >> Великобритания >> Остров Торвер


ПОГОДА на Острове Торвер

  • Прогноз погоды на Острове Торвер
  • Монитор погоды на Острове Торвер

АРХИВ ПОГОДЫ на Острове Торвер

Время (UTC), дата Ветер
(напр.,м/с)
 
Видим.   Явления Облачность Т
(С)
Тd
(С)
f
(%)
Тe
(С)
Тes
(С)
Комфортность P
(гПа)
Po
(гПа)
Тmin
(С)
Tmax
(С)
R
(мм)
R24
(мм)
S
(см)
19 16.09 С 2 29 км в посл. час дождь н/о +17.4 +16.0 91 +18 +18 1022.1 1021.6
20 16.09 С 2 45 км н/о +16.8 +15.3 91 +17 +17 1022.4 1021.9
21 16.09 СВ 4 29 км н/о +17.2 +15.4 89 +17 +17 1022.7 1022.2
22 16.09 СВ 3 35 км н/о +17.0 +14.6 86 +17 +17 1023.0 1022.5
23 16.09 СВ 3 18 км в посл. час дождь н/о +16.1 +14.5 90 +16 +16 1023.2 1022.7
00 17.09 СВ 2 30 км н/о +15.7 +13.9 89 +16 +16 1023.0 1022.5 0.2
01 17.09 С 2 28 км н/о +15.2 +13.3 88 +15 +15 1023.0 1022.5
02 17.09 С 2 30 км н/о +14.9 +13.3 90 +15 +15 1023.3 1022.8
03 17.09 С 4 50 км н/о +14.6 +11.4 81 +13 +13 1023.4 1022.9
04 17.09 С 3 27 км н/о +13.3 +10.5 83 +12 +12 1023.7 1023.2
05 17.09 С 4 19 км н/о +12.0 +9.5 85 +10 +10 1023.8 1023.4
06 17.09 С 1 22 км н/о +10.5 +7.9 84 +10 +10 1024.1 1023.7 +10.5 0.2
07 17.09 С 2 45 км н/о +11.5 +8.2 80 +10 +10 1024.5 1024.0
08 17.09 С 5 50 км н/о +12.8 +8.1 73 +11 +11 1025.0 1024.5
09 17.09 С 5 50 км н/о +14.2 +8.5 69 +13 +13 1025.2 1024.7
10 17.09 С 5 35 км н/о +15.8 +8.4 61 +15 +15 1025.2 1024.7
11 17.09 С 4 30 км н/о +17.1 +8.4 57 +17 +17 1025.0 1024.5
12 17.09 С 4 24 км н/о +17.8 +8.0 53 +18 +18 1024.9 1024.4
13 17.09 С 4 30 км н/о +19.0 +7.9 48 +19 +19 1024.8 1024.4
14 17.09 СВ 3 28 км н/о +19.6 +7.8 46 +21 +21 комфорт 1024.6 1024.1
15 17.09 С 4 45 км н/о +20.1 +7.5 44 +21 +21 комфорт 1024.7 1024.2
16 17.09 СВ 4 40 км н/о +19.8 +6.8 43 +21 +21 комфорт 1024.5 1024.1
17 17.09 СВ 5 40 км н/о +18.7 +6.3 44 +19 +19 1024.7 1024.3
18 17.09 СВ 3 40 км н/о +17.1 +6.5 50 +17 +17 1025.0 1024.5 +20.3
19 17.09 СВ 2 50 км н/о +13.6 +7.1 65 +13 +13 1025.6 1025.1
20 17.09 СВ 3 50 км н/о +11.7 +7.1 73 +10 +10 1026.1 1025.7
21 17.09 СВ 4 45 км н/о +11.1 +7.2 77 +9 +9 1026.7 1026.3
22 17.09 СВ 3 50 км н/о +11.1 +6.9 75 +10 +10 1027.3 1026.8
23 17.09 СВ 3 40 км н/о +9.9 +7.0 82 +8 +8 1027.8 1027.3
00 18.09 СВ 3 40 км н/о +10.1 +6.8 80 +8 +8 1027.8 1027.3
01 18.09 СВ 4 35 км н/о +9.4 +6.1 80 +7 +7 1028.2 1027.7
02 18.09 СВ 4 35 км н/о +9.2 +5.6 78 +7 +7 1028.0 1027.5
03 18.09 С 2 40 км н/о +8.1 +5.4 83 +7 +7 1028.1 1027.6
04 18.09 СВ 2 30 км н/о +7.8 +5.0 82 +6 +6 1028.2 1027.7
05 18.09 С 3 40 км н/о +7.4 +4.7 83 +5 +5 1028.6 1028.1
06 18.09 С 3 28 км н/о +7.6 +5.1 84 +5 +5 1028.9 1028.4 +7.1
07 18.09 С 3 28 км н/о +8.8 +6.0 83 +7 +7 1029.2 1028.7
08 18.09 СВ 5 30 км н/о +12.2 +6.2 67 +10 +10 1029.4 1028.9
09 18.09 СВ 5 29 км н/о +14.5 +6.9 60 +13 +13 1029.9 1029.4
10 18.09 СВ 5 30 км н/о +16.1 +5.4 49 +15 +15 1029.9 1029.4
11 18.09 СВ 3 35 км н/о +16.7 +2.3 38 +17 +17 1029.8 1029.3
12 18.09 СВ 4 35 км н/о +18.0 +5.1 43 +18 +18 1029.4 1028.9
13 18.09 СВ 6 30 км н/о +18.7 +5.6 42 +19 +19 1029.2 1028.7
14 18.09 В 4 40 км н/о +19.2 +6.0 42 +20 +20 1028.9 1028.4
15 18.09 СВ 3 30 км н/о +19.3 +5.8 41 +20 +20 1028.7 1028.2
16 18.09 СВ 4 40 км н/о +19.1 +6.1 43 +20 +20 1028.4 1027.9
17 18.09 СВ 4 40 км н/о +18.5 +6.3 45 +19 +19 1028.3 1027.8
18 18.09 СВ 3 30 км н/о +15.8 +6.7 55 +15 +15 1028.6 1028.1 +19.7
19 18.09 СВ 2 35 км н/о +14.0 +7.2 64 +14 +14 1029.1 1028.6
20 18.09 В 2 35 км н/о +11.8 +8.2 79 +11 +11 1029.6 1029.1
21 18.09 СВ 2 30 км н/о +10.9 +8.3 84 +10 +10 1029.8 1029.3
22 18.09 СВ 2 30 км н/о +9.6 +7.0 84 +8 +8 1030.2 1029.7
23 18.09 СВ 2 30 км н/о +9.6 +7.1 84 +8 +8 1030.4 1029.9
00 19.09 СВ 3 40 км н/о +8.9 +6.2 83 +7 +7 1030.6 1030.1
01 19.09 СВ 2 35 км н/о +8.6 +6.4 86 +7 +7 1030.6 1030.1
02 19.09 СВ 3 30 км н/о +8.5 +6.4 87 +6 +6 1030.5 1030.0
03 19.09 С 3 35 км н/о +8.7 +6.6 87 +6 +6 1030.3 1029.8
04 19.09 СВ 3 35 км н/о +8.5 +6.7 88 +6 +6 1030.2 1029.7
05 19.09 С 3 35 км н/о +8.5 +6.5 87 +6 +6 1030.3 1029.8
06 19.09 С 3 40 км н/о +8.2 +6.4 88 +6 +6 1030.5 1030.1 +7.7
07 19.09 СВ 3 30 км н/о +10.1 +7.8 86 +8 +8 1031.0 1030.5
08 19.09 СВ 3 35 км н/о +14.2 +8.9 70 +13 +13 1031.4 1030.9
09 19.09 СВ 5 35 км н/о +16.6 +8.7 60 +16 +16 1031.7 1031.3
10 19.09 В 4 35 км н/о +17.5 +7.5 52 +17 +17 1031.8 1031.3
11 19.09 В 4 40 км н/о +18.4 +8.5 52 +19 +19 1031.5 1031.1
12 19.09 В 3 45 км н/о +19.0 +8.9 52 +20 +20 1031.3 1030.8
13 19.09 Ю 5 40 км н/о +18.6 +9.7 56 +19 +19 1030.7 1030.2
14 19.09 Ю 6 35 км н/о +18.6 +10.8 60 +19 +19 1030.2 1029.7
15 19.09 Ю 5 50 км н/о +18.5 +11.9 65 +19 +19 1029.9 1029.4
16 19.09 Ю 4 40 км н/о +17.6 +11.4 67 +17 +17 1029.7 1029.2
17 19.09 ЮВ 3 40 км н/о +17.4 +10.8 65 +17 +17 1029.5 1029.0
18 19.09 В 2 40 км н/о +15.5 +10.4 72 +15 +15 1029.4 1028.9 +19.7
19 19.09 В 2 45 км н/о +14.1 +10.7 80 +14 +14 1029.6 1029.1
20 19.09 СВ 2 22 км н/о +12.4 +10.2 86 +12 +12 1029.6 1029.1
21 19.09 СВ 3 15 км н/о +11.9 +10.7 92 +10 +10 1029.6 1029.1
22 19.09 СВ 3 40 км н/о +11.5 +9.3 86 +10 +10 1029.7 1029.2
23 19.09 СВ 3 50 км н/о +10.9 +8.7 86 +9 +9 1029.5 1029.0
00 20.09 СВ 4 40 км н/о +11.7 +9.7 88 +9 +9 1029.2 1028.7
01 20.09 СВ 3 30 км н/о +11.3 +9.7 90 +9 +9 1028.7 1028.2
02 20.09 СВ 4 24 км н/о +10.6 +9.5 93 +8 +8 1028.4 1027.9
03 20.09 СВ 4 26 км н/о +10.7 +9.5 92 +8 +8 1028.0 1027.5
04 20.09 СВ 4 30 км н/о +12.1 +10.3 89 +10 +10 1027.4 1026.9
05 20.09 В 4 35 км н/о +12.2 +9.7 85 +10 +10 1026.8 1026.3
06 20.09 СВ 4 35 км н/о +11.7 +9.1 84 +10 +10 1026.6 1026.1 +10.2
07 20.09 В 3 45 км н/о +12.8 +9.3 79 +11 +11 1026.6 1026.2
08 20.09 В 5 30 км н/о +14.8 +9.7 71 +13 +13 1026.6 1026.2
09 20.09 В 5 28 км н/о +16.7 +9.7 63 +16 +16 1026.4 1025.9
10 20.09 В 9 26 км н/о +17.7 +8.7 56 +17 +17 1026.0 1025.5
11 20.09 В 9
{13}
35 км н/о +17.9 +7.1 49 +17 +17 1025.4 1024.9
12 20.09 В 8 35 км н/о +18.8 +7.6 48 +18 +18 1024.5 1024.0
13 20.09 В 7 30 км н/о +19.7 +7.2 44 +20 +20 1023.8 1023.4
14 20.09 В 6 40 км н/о +20.4 +4.9 36 +21 +21 комфорт 1023.0 1022.5
15 20.09 В 7 45 км н/о +20.5 +4.2 34 +21 +21 комфорт 1021.7 1021.2
16 20.09 В 6 45 км н/о +20.5 +3.6 33 +21 +21 комфорт 1020.5 1020.0
17 20.09 В 6 20 км н/о +19.5 +4.4 37 +20 +20 1019.8 1019.3
18 20.09 В 5 45 км н/о +17.7 +5.1 43 +17 +17 1019.5 1019.0 +20.9
19 20.09 СВ 5 45 км н/о +16.0 +5.7 50 +15 +15 1019.1 1018.6
20 20.09 В 5 40 км н/о +15.2 +6.4 56 +14 +14 1018.8 1018.4
21 20.09 В 5 50 км н/о +14.6 +6.9 60 +13 +13 1018.5 1018.1
22 20.09 В 4 45 км н/о +13.9 +7.2 64 +13 +13 1018.0 1017.5
23 20.09 В 4 40 км н/о +14.2 +7.8 65 +13 +13 1017.4 1016.9
00 21.09 В 4 40 км н/о +13.8 +8.4 70 +13 +13 1016.8 1016.3
01 21.09 В 5 45 км н/о +13.8 +8.6 71 +12 +12 1016.2 1015.7
02 21.09 В 5 45 км н/о +13.9 +8.6 70 +12 +12 1015.3 1014.8
03 21.09 В 5 40 км н/о +14.0 +9.5 74 +12 +12 1014.7 1014.2
04 21.09 В 5 45 км н/о +13.4 +9.0 75 +12 +12 1014.1 1013.6
05 21.09 В 5 45 км н/о +12.9 +9.1 78 +11 +11 1013.9 1013.4
06 21.09 В 5 35 км н/о +13.0 +9.1 77 +11 +11 1013.5 1013.1 +12.8
07 21.09 В 5 40 км н/о +14.2 +9.9 75 +12 +12 1013.3 1012.8
08 21.09 В 4 40 км н/о +16.3 +11.2 72 +16 +16 1013.1 1012.7
09 21.09 В 7 26 км н/о +18.0 +11.9 68 +17 +17 1012.8 1012.3
10 21.09 В 7 35 км н/о +19.0 +12.4 66 +19 +19 1012.3 1011.8
11 21.09 В 7 40 км н/о +19.3 +11.9 62 +20 +20 1011.7 1011.2
12 21.09 В 8 40 км н/о +20.3 +11.3 56 +22 +22 комфорт 1011.3 1010.8
13 21.09 В 7 30 км н/о +20.6 +11.4 56 +22 +22 комфорт 1010.5 1010.0
14 21.09 В 7 40 км н/о +20.2 +11.5 57 +22 +22 комфорт 1010.1 1009.6
15 21.09 В 7 40 км н/о +19.5 +12.3 63 +20 +20 1009.6 1009.1
16 21.09 В 6 30 км н/о +19.8 +11.9 60 +21 +21 комфорт 1008.8 1008.3
17 21.09 В 5 35 км н/о +19.6 +11.4 59 +21 +21 комфорт 1008.1 1007.6
18 21.09 В 5 45 км н/о +19.1 +11.5 61 +20 +20 1007.5 1007.1 +21.0
19 21.09 В 4 35 км н/о +19.5 +12.5 64 +21 +21 комфорт 1007.1 1006.7
20 21.09 В 4 45 км н/о +19.0 +12.9 68 +20 +20 1006.9 1006.4
21 21.09 В 4 45 км н/о +19.6 +14.3 71 +21 +21 комфорт 1006.4 1005.9
22 21.09 В 5 40 км н/о +19.7 +14.8 73 +21 +21 комфорт 1005.9 1005.4
23 21.09 В 4 30 км н/о +19.7 +15.3 76 +22 +22 комфорт 1005.4 1005.0
00 22.09 В 4 30 км в посл. час дождь н/о +19.0 +15.6 81 +20 +20 1004.9 1004.5 0.0
01 22.09 В 4 35 км н/о +19.3 +15.1 77 +21 +21 комфорт 1004.2 1003.7
02 22.09 В 4 26 км в посл. час дождь н/о +18.2 +15.7 85 +18 +18 1003.8 1003.3
03 22.09 В 4 23 км н/о +18.1 +15.9 87 +18 +18 1003.5 1003.0
04 22.09 В 3 25 км в посл. час дождь н/о +18.1 +16.0 88 +19 +19 1002.9 1002.5
05 22.09 В 3 30 км н/о +18.5 +16.1 86 +19 +19 1002.8 1002.4
06 22.09 В 2 29 км в посл. час дождь н/о +17.9 +15.8 88 +19 +19 1002.9 1002.4 +17.6 1
07 22.09 В 3 26 км н/о +17.9 +16.4 91 +18 +18 1002.6 1002.1
08 22.09 Ю 3 21 км н/о +18.5 +17.0 91 +19 +19 1002.8 1002.3
09 22.09 ЮЗ 4 26 км н/о +18.0 +15.4 85 +18 +18 1003.1 1002.6
10 22.09 З 3 9000 м ливневой дождь н/о +15.9 +15.3 96 +16 +16 1003.6 1003.1
11 22.09 ЮВ 1 40 км слаб. дождь н/о +16.6 +15.9 96 +18 +18 1003.7 1003.2
12 22.09 Ю 7 45 км в посл. час дождь н/о +17.1 +15.7 91 +16 +16 1004.3 1003.8 9
13 22.09 ЮЗ 7 30 км н/о +17.7 +15.5 87 +17 +17 1004.6 1004.1
14 22.09 Ю 7 35 км н/о +17.9 +15.3 85 +17 +17 1004.7 1004.2
15 22.09 ЮЗ 8 30 км н/о +18.2 +15.1 82 +18 +18 1004.7 1004.2
16 22.09 ЮЗ 8 35 км н/о +18.5 +14.4 77 +18 +18 1004.9 1004.4
17 22.09 ЮЗ 7 30 км н/о +17.3 +13.0 76 +16 +16 1005.1 1004.7
18 22.09 ЮЗ 6 45 км н/о +16.9 +12.8 77 +16 +16 1005.3 1004.8 +19.4 9
19 22.09 ЮЗ 6 35 км н/о +16.4 +13.2 81 +15 +15 1005.8 1005.3
20 22.09 ЮЗ 8 30 км н/о +16.3 +13.5 83 +15 +15 1005.9 1005.5
21 22.09 ЮЗ 6 45 км н/о +15.9 +12.9 82 +15 +15 1006.3 1005.9
22 22.09 ЮЗ 6 30 км н/о +15.8 +13.1 84 +14 +14 1006.9 1006.4
23 22.09 ЮЗ 5 45 км н/о +15.2 +12.8 86 +14 +14 1007.2 1006.8
00 23.09 ЮЗ 4 30 км в посл. час дождь н/о +14.7 +13.9 95 +14 +14 1007.6 1007.2 0.8
01 23.09 З 4 35 км н/о +14.6 +13.7 94 +13 +13 1008.4 1007.9
02 23.09 З 5 30 км н/о +15.0 +13.6 91 +13 +13 1008.8 1008.3
03 23.09 З 6 29 км н/о +15.2 +13.2 88 +14 +14 1009.6 1009.1
04 23.09 З 6 30 км н/о +14.4 +12.2 87 +13 +13 1010.0 1009.5
05 23.09 З 5 30 км н/о +14.2 +11.9 86 +13 +13 1010.5 1010.1
06 23.09 З 3 29 км н/о +13.6 +11.7 88 +12 +12 1011.0 1010.5 +13.6 1
07 23.09 ЮЗ 4 27 км н/о +15.0 +12.5 85 +14 +14 1011.5 1011.0
08 23.09 ЮЗ 5 35 км н/о +16.4 +13.0 80 +15 +15 1011.9 1011.4
09 23.09 ЮЗ 8 35 км н/о +16.8 +12.3 75 +15 +15 1011.9 1011.4
10 23.09 Ю 8 25 км н/о +16.9 +13.7 81 +16 +16 1012.2 1011.7
11 23.09 Ю 8 30 км в посл. час дождь н/о +17.8 +13.6 76 +17 +17 1011.8 1011.4
12 23.09 Ю 9 28 км в посл. час дождь н/о +18.4 +13.9 75 +18 +18 1011.7 1011.3 0.0
13 23.09 Ю 8 23 км н/о +17.8 +14.3 80 +17 +17 1011.6 1011.2
14 23.09 Ю 9
{13}
8000 м ливневой дождь н/о +16.1 +13.6 85 +14 +14 1011.4 1010.9
15 23.09 Ю 10 7000 м дождь н/о +16.1 +14.6 91 +14 +14 1010.9 1010.4
16 23.09 Ю 9
{13}
22 км в посл. час дождь н/о +16.1 +13.5 85 +14 +14 1010.3 1009.8
17 23.09 Ю 9
{14}
5000 м слаб. морось н/о +15.7 +14.9 95 +14 +14 1009.8 1009.3
18 23.09 Ю 11
{14}
4300 м в посл. час дождь н/о +15.7 +15.1 96 +13 +13 1009.2 1008.7 +19.3 3
19 23.09 Ю 11
{16}
4700 м слаб. морось с дождем н/о +16.1 +15.6 97 +14 +14 1009.2 1008.8

 

Местоположение метеостанции Остров Торвер (Великобритания): широта 50.82 долгота -0.92 высота над уровнем моря 3 м.

В архиве по умолчанию представлена погода на Острове Торвер за последнюю неделю. Архивные данные за месяц целиком и за предыдущие месяцы, начиная с января 2011 года, Вы можете получить, выбрав интересующий диапазон дат из раскрывающегося списка и нажав кнопку "Ввод!".


*Определитесь, кто Вы:
робот инопланетянин человек

Внимание! Время в таблицах - всемирное. Для получения местного времени необходимо прибавить поправку, которая равна 0 ч.

Смотрите также архив погоды в соседних городах и на ближайших метеорологических станциях:

Погода в Ли-он-те-Соленте (Великобритания) (21 км)
Погода на Маяке St. Catherines (Великобритания) (38 км)
Погода в Аэропорту Брайтон-Сити (Великобритания) (45 км)
Погода в Одихеме (Великобритания) (46 км)
Погода в Фарнборо (Великобритания) (52 км)
Погода в Мидл Уоллоп (Великобритания) (58 км)
Погода в Чарлвуде (Великобритания) (59 км)
Погода в Борнмуте (Великобритания) (64 км)
Погода в Боскомб Даун (Великобритания) (70 км)
Погода в Ларкхилле (Великобритания) (75 км)

Пояснения к столбцам:

Ветер - указаны скорость ветра в м/с - средняя за 10 мин, порывы в срок и между сроками (в фигурных скобках) и направление, откуда дует ветер: С - северный, СВ - северо-восточный, В - восточный, ЮВ - юго-восточный, Ю - южный, ЮЗ - юго-западный, З - западный, СЗ - северо-западный.
Видимость - горизонтальная дальность видимости в метрах или километрах. При видимости от 1 до 10 км при отсутствии осадков обычно наблюдается дымка, при ухудшении видимости до 1 км и менее - туман. В сухую погоду видимость может ухудшаться дымом, пылью или мглою.
Явления - указаны атмосферные явления, наблюдавшиеся в срок или в последний час перед сроком; фигурными скобками обозначены явления, наблюдавшиеся между сроками (за 1-3 часа до срока); квадратными скобками обозначены град или гололедные отложения с указанием их диаметра в мм.
Облачность - указаны через наклонную черту общая и нижняя облачность в баллах и высота нижней границы облаков в метрах; квадратными скобками обозначены формы облаков: Ci - перистые, Cs - перисто-слоистые, Cc - перисто-кучевые, Ac - высококучевые, As - высокослоистые, Sc - слоисто-кучевые, Ns - слоисто-дождевые, Cu - кучевые, Cb - кучево-дождевые. Подробнее классификацию облаков см. в Атласе облаков (PDF).
T - Температура воздуха - температура, измеренная на высоте 2 м над землей.
Td - Температура точки росы - температура, при понижении до которой содержащийся в воздухе водяной пар достигнет насыщения.
f - Относительная влажность воздуха - влажноcть воздуха, измеренная на высоте 2 м над землей.
Te - Эффективная температура - температура, которую ощущает одетый по сезону человек в тени. Характеристика душности погоды. При расчете учитывается влияние влажности воздуха и скорости ветра на теплоощущения человека.
Tes - Эффективная температура на солнце - температура, которую ощущает человек, с поправкой на солнечный нагрев. Характеристика знойности погоды. Зависит от высоты солнца над горизонтом, облачности и скорости ветра. Ночью, в пасмурную погоду, а также при ветре 12 м/с и более поправка равна нулю.
P - Атмосферное давление - приведенное к уровню моря атмосферное давление.
Po - Атмосферное давление - измеренное на уровне метеостанции атмосферное давление.
Tmin - Минимальная температура - минимум температуры воздуха на высоте 2 м над землей.
Tmax - Максимальная температура - максимум температуры воздуха на высоте 2 м над землей.
R - Количество осадков - Количество выпавших осадков за период времени, мм. При наведении курсора мыши на число - период времени, за который выпало указанное количество осадков.
R24 - Количество осадков - Количество выпавших осадков за 24 часа, мм.
S - Снежный покров - Высота снежного покрова, см. При наведении курсора мыши на число - состояние снежного покрова и степень покрытия местности в баллах.